STARLINK-11266, 60732

Orbit data source: Space-Track

STARLINK-11266, 60732 is a payload satellite owned by SpaceX/Seattle (US) in LEO that was launched on Wed, 28 Aug 2024 UTC via an FALCON 9 launch vehicle from the Air Force Eastern Test Range (AFETR). Payload-class satellites include a variety of spacecraft equipped with specific instruments for various scientific and technological missions. These include communications satellites like Starlink; space stations such as the ISS; scientific satellites like the Hubble; Earth observation satellites from companies like Planet Labs, Umbra, and HawkEye 360; GPS; miniature CubeSats for education and research; and military/defense satellites.

Loading next visibility...
Identifier
60732, 2024-152N
Orbit
LEO
Last TLE update
18 hours ago
Origin
Manufacturer
SpaceX/Seattle
Mission
Operational Commercial Communications
Bus & Motor
STARLINK V2M, Unknown motor
Mass
730 kg wet, ~700 kg dry
Launch date (UTC)
2024-08-28 (10 months ago)
Launch vehicle
FALCON 9
Launch site
Air Force Eastern Test Range (AFETR)
Object type
Payload
Rocket body
Debris
Shape & HBR
Box + 2 Pan, 29 m
Radar Cross Section
36.964 m², Large (>1 m²)

Expand to show TLE details & history

TLE from 18 hours ago
0 STARLINK-11266
1 60732U 24152N   25181.64595197 -.00000497  00000-0  75731-6 0  9995
2 60732  53.1581 278.3665 0001148  97.8413 262.2735 15.69709360 49259
Epoch: 2025-06-30T15:30Z
TLE epoch observation values (Epoch: 2025-06-30T15:30:10.25Z)
Latitude
-0.00003°
Longitude
126.871°
Altitude
360.748 km
Speed
7.694 km/s
True Right ascension
18h 33m 27s
True Declination
0° 00' 00"
Sunlit
Object was in full shadow at epoch
Visualization orbit readout
Latitude
-30.8969°
Longitude
-30.29693°
Altitude
369.599 km
Speed
7.687 km/s
Apparent Right ascension
08h 26m 47s
Apparent Declination
-35° 15' 05"
Sunlit
Object is in daylight
Visualization observer readout
Local Sidereal Time
20:52:50
Azimuth
49.913° ENE
Elevation
-83.048°
Doppler factor
1
Orbital elements
Apogee altitude
360.763 km
Perigee altitude
359.216 km
Semi-major axis
6,738.127 km
Eccentricity
0.00011
Inclination
53.1581°
RAAN
278.3665°
Arg. of periapsis
97.8413°
True anomaly
Unknown
Mean anomaly
262.2735°
Eccentric anomaly
Unknown
Mean motion
3.92405 °/min
Orbital period
91.74 mins
BSTAR
7.5731e-7
Loading maneuver chart data...
Loading SW <> Apogee altitude chart data...
Loading historical data...
Loading historical data...
Loading historical data...
Loading historical data...
Loading historical data...
Loading historical data...
Loading historical data...

STARLINK-11266 Visibility forecast

Observer location: undefined°, undefined°

Span
Click to sort rows by Start time (UTC) header in descending order
Start Az.
Max El. time (UTC)
Max El. Az.
Max El.
End time (UTC)
End Az.
4 mins2025-07-01 10:03:35.455Z270.044° WNW2025-07-01 10:05:35.455Z315.194° NNW23.57°2025-07-01 10:07:35.455Z17.156° NNE
4 mins2025-07-02 08:57:35.455Z237.59° WSW2025-07-02 08:59:35.455Z354.142° N43.386°2025-07-02 09:01:35.455Z45.016° ENE
|